Tracking 25656 objects as of 21-May-2022
HD Live streaming from Space Station
objects crossing your sky now

COSMOS 2251 DEB

Track COSMOS 2251 DEB now!
10-day predictions


NORAD ID: 36048
Int'l Code: 1993-036AXK
Perigee: 763.0 km
Apogee: 803.0 km
Inclination: 74.1 °
Period: 100.4 minutes
Semi major axis: 7153 km
RCS: 0.0095 m2 (small)
Launch date: June 16, 1993
Source: Commonwealth of Independent States (former USSR) (CIS)
Launch site: PLESETSK MISSILE AND SPACE COMPLEX (PKMTR)

Note: This is SATELLITE DEBRIS
aabbcc
Your satellite tracking list
Your tracking list is empty




NASA's NSSDC Master Catalog

Two Line Element Set (TLE):
1 36048U 93036AXK 22141.06545385  .00000583  00000-0  21404-3 0  9998
2 36048  74.0561 166.2592 0028016 187.2140 202.4367 14.34762511668162
Source of the keplerian elements: AFSPC